| time (UTC) | temp C | wind direction | speed KPH | gust KPH | rain 1hr cm | rain 24hr cm | rain mn cm | humidity % | barometer mb |
| 20260506173210 | 8 | 246 | 4.8 | 0.0 | 0.00 | 0.00 | 1.35 | 90 | 1007.8 |
| 20260506170215 | 9 | 264 | 12.9 | 0.0 | 0.00 | 0.00 | 1.35 | 90 | 1007.4 |
| 20260506163210 | 9 | 200 | 3.2 | 0.0 | 0.00 | 0.00 | 1.35 | 91 | 1007.4 |
| 20260506160210 | 9 | 169 | 6.4 | 0.0 | 0.00 | 0.00 | 1.32 | 90 | 1007.4 |
| 20260506153210 | 9 | 179 | 6.4 | 0.0 | 0.00 | 0.00 | 1.30 | 90 | 1007.3 |
| 20260506150210 | 10 | 211 | 12.9 | 0.0 | 0.00 | 0.00 | 1.27 | 90 | 1007.1 |
| 20260506143210 | 10 | 178 | 0.0 | 0.0 | 0.00 | 0.00 | 1.17 | 92 | 1006.7 |
| 20260506140210 | 10 | 209 | 0.0 | 0.0 | 0.00 | 0.00 | 0.81 | 89 | 1006.3 |
| 20260506133211 | 10 | 306 | 6.4 | 0.0 | 0.00 | 0.00 | 0.79 | 90 | 1006.0 |
| 20260506130211 | 10 | 360 | 1.6 | 0.0 | 0.00 | 0.00 | 0.74 | 88 | 1005.8 |
| 20260506123210 | 10 | 338 | 8.0 | 0.0 | 0.00 | 0.00 | 0.69 | 85 | 1005.7 |
| 20260506120210 | 12 | 85 | 1.6 | 0.0 | 0.00 | 0.00 | 0.36 | 82 | 1005.1 |
| 20260506113217 | 12 | 192 | 1.6 | 0.0 | 0.00 | 0.00 | 0.36 | 79 | 1005.0 |
| 20260506110210 | 11 | 264 | 4.8 | 0.0 | 0.00 | 0.00 | 0.36 | 84 | 1005.2 |
| 20260506100213 | 14 | 263 | 0.0 | 0.0 | 0.00 | 0.00 | 0.00 | 69 | 1005.2 |
| 20260506093211 | 13 | 315 | 0.0 | 0.0 | 0.00 | 0.00 | 0.00 | 67 | 1005.3 |
| 20260506090211 | 13 | 69 | 1.6 | 0.0 | 0.00 | 0.00 | 0.00 | 72 | 1005.4 |
| 20260506083211 | 13 | 108 | 0.0 | 0.0 | 0.00 | 0.00 | 0.00 | 77 | 1005.2 |
| 20260506080212 | 12 | 294 | 6.4 | 0.0 | 0.00 | 0.00 | 0.00 | 80 | 1005.4 |
| 20260506073211 | 11 | 111 | 0.0 | 0.0 | 0.00 | 0.00 | 0.00 | 84 | 1005.5 |
| 20260506070212 | 10 | 100 | 1.6 | 0.0 | 0.00 | 0.00 | 0.00 | 89 | 1005.5 |
| 20260506060210 | 7 | 121 | 0.0 | 0.0 | 0.00 | 0.00 | 0.00 | 94 | 1005.6 |
| 20260506050211 | 6 | 214 | 0.0 | 0.0 | 0.00 | 0.00 | 0.00 | 95 | 1006.1 |
| 20260506043211 | 6 | 214 | 0.0 | 0.0 | 0.00 | 0.00 | 0.00 | 94 | 1006.2 |
| 20260506040211 | 7 | 118 | 1.6 | 0.0 | 0.00 | 0.00 | 0.00 | 94 | 1006.3 |
| 20260506033211 | 7 | 105 | 0.0 | 0.0 | 0.00 | 0.00 | 0.00 | 94 | 1006.3 |
| 20260506030212 | 6 | 124 | 0.0 | 0.0 | 0.00 | 0.00 | 0.00 | 94 | 1006.7 |
| 20260506023211 | 6 | 109 | 3.2 | 0.0 | 0.00 | 0.00 | 0.00 | 93 | 1007.1 |
| 20260506020212 | 7 | 182 | 0.0 | 0.0 | 0.00 | 0.00 | 0.00 | 93 | 1007.0 |
| 20260506013211 | 7 | 202 | 0.0 | 0.0 | 0.00 | 0.00 | 0.00 | 92 | 1007.1 |
| 20260506010212 | 8 | 107 | 8.0 | 0.0 | 0.00 | 0.00 | 0.00 | 94 | 1007.5 |
| 20260506003209 | 8 | 94 | 0.0 | 0.0 | 0.00 | 0.00 | 0.00 | 92 | 1007.4 |
| 20260506000211 | 8 | 94 | 0.0 | 0.0 | 0.00 | 0.00 | 0.00 | 91 | 1007.6 |
| 20260505233209 | 8 | 97 | 4.8 | 0.0 | 0.00 | 0.00 | 0.00 | 91 | 1008.0 |
| 20260505230209 | 8 | 91 | 0.0 | 0.0 | 0.00 | 0.00 | 0.00 | 92 | 1008.0 |
| 20260505223209 | 8 | 90 | 0.0 | 0.0 | 0.00 | 0.00 | 0.00 | 93 | 1008.0 |
| 20260505220209 | 8 | 112 | 1.6 | 0.0 | 0.00 | 0.00 | 0.00 | 92 | 1008.1 |
| 20260505213211 | 9 | 110 | 0.0 | 0.0 | 0.00 | 0.00 | 0.36 | 90 | 1008.3 |
| 20260505210215 | 10 | 69 | 3.2 | 0.0 | 0.00 | 0.00 | 0.36 | 88 | 1008.2 |
| 20260505203209 | 10 | 108 | 6.4 | 0.0 | 0.00 | 0.00 | 0.36 | 91 | 1007.9 |
| 20260505200210 | 11 | 196 | 4.8 | 0.0 | 0.00 | 0.00 | 0.36 | 90 | 1007.7 |
| 20260505193209 | 11 | 248 | 1.6 | 0.0 | 0.00 | 0.00 | 0.36 | 89 | 1007.2 |
| 20260505190215 | 11 | 210 | 3.2 | 0.0 | 0.00 | 0.00 | 0.36 | 87 | 1007.3 |
| 20260505183212 | 11 | 194 | 0.0 | 0.0 | 0.00 | 0.00 | 0.36 | 87 | 1007.1 |
| 20260505180211 | 12 | 128 | 3.2 | 0.0 | 0.00 | 0.00 | 0.36 | 86 | 1006.9 |